DELTA 1 R/B, 738

Orbit data source: Space-Track

DELTA 1 R/B, 738 is space debris originally from a launch on Tue, 21 Jan 1964 UTC launched from the Air Force Eastern Test Range (AFETR). Debris objects in space refer to the collection of defunct objects orbiting the Earth. Examples of debris include non-operational satellites, rocket bodies, and fragments generated from explosions, collisions, or faulty payload assembly.

Loading next visibility...
Identifier
738, 1964-003B
Orbit
Active
Country
Flag of USUS
Related business
Manufacturer
ABL
Mission
Spacecraft
Bus & Motor
ALTAIR, Unknown motor
Mass
24 kg wet, 24 kg dry
Launch date (UTC)
1964-01-21 (62 years ago)
Launch vehicle
Unknown
Launch site
Air Force Eastern Test Range (AFETR)
Object type
Payload
Rocket body
Debris
Shape & HBR
Unknown
Radar Cross Section
Medium (>0.1 m² and <1 m²)

Expand to show TLE details & history
Last TLE update: 3 days ago

TLE from 3 days ago
0 DELTA 1 R/B
1 00738U 64003B   26069.41488898 -.00000010  00000-0  00000-0 0  9996
2 00738  46.4606 105.0784 2606272 263.1418  66.9069  7.39350980678170
Epoch: 2026-03-10T09:57Z
TLE epoch observation values (Epoch: 2026-03-10T09:57:26.407Z)
Latitude
0.00002°
Longitude
147.62458°
Altitude
4,332.444 km
Speed
6.215 km/s
True Right ascension
07h 00m 18s
True Declination
0° 00' 00"
Sunlit
Object was in daylight at epoch
Visualization orbit readout
Latitude
Unknown
Longitude
Unknown
Altitude
Unknown
Speed
Unknown
Apparent Right ascension
Unknown
Apparent Declination
Unknown
Sunlit
N/A
Visualization observer readout
Local Sidereal Time
00:19:54
Azimuth
Unknown
Elevation
Unknown
Doppler factor
Unknown
Orbital elements
Apogee altitude
7,654.028 km
Perigee altitude
1,851.894 km
Semi-major axis
11,131.098 km
Eccentricity
0.26063
Inclination
46.4606°
RAAN
105.0784°
Arg. of periapsis
263.1418°
True anomaly
96.92185°
Mean anomaly
66.9069°
Eccentric anomaly
81.68268°
Mean motion
1.84815 °/min
Orbital period
194.79 mins
BSTAR
0
Loading maneuver chart data...
Computing Atmospheric mass density...
Loading historical data...
Loading historical data...
Loading historical data...
Loading historical data...
Loading historical data...
Loading historical data...
Loading historical data...
Other satellites on launch #3 in the year 1964 (1964-01-21 UTC)

Documentation

Showing up to 5 results
|